WILDBLUE-1              
1 29643U 06054A   19260.60237656 -.00000054  00000-0  00000-0 0  9992
2 29643   0.0261 236.8680 0001822 291.1621 293.9019  1.00272694 29086
AMC-18                  
1 29644U 06054B   19261.53356962  .00000101  00000-0  00000+0 0  9999
2 29644   0.0161 242.2055 0002045 248.6044 279.4401  1.00272544 46859
ARIANE 5 R/B            
1 29646U 06054D   19260.55426567  .00000940  00000-0  22690-3 0  9995
2 29646   2.7640 296.6825 7065211  14.2253 358.3892  2.55911018112616